Tracking 19476 objects as of 17-Jan-2019
HD Live streaming from Space Station
objects crossing your sky now

FLOCK 3M 3

Track FLOCK 3M 3 now!
10-day predictions
FLOCK 3M 3 is classified as:


NORAD ID: 42996
Int'l Code: 2017-068K
Perigee: 501.5 km
Apogee: 525.6 km
Inclination: 97.4 °
Period: 94.7 minutes
Semi major axis: 6884 km
RCS: Unknown
Launch date: October 31, 2017
Source: United States (US)
Launch site: AIR FORCE WESTERN TEST RANGE (AFWTR)
aabbcc
Your satellite tracking list
Your tracking list is empty




NASA's NSSDC Master Catalog

Two Line Element Set (TLE):
1 42996U 17068K   19017.31403705  .00001243  00000-0  60974-4 0  9993
2 42996  97.3612 129.5027 0017497 118.5629 304.7860 15.19823201 67155
Source of the keplerian elements: AFSPC